This is the latest recevied weather packets stored in our database for station/object KF0PEC-13. If no packets are shown the sender has not sent any weather packets the latest 10 day(s).
| Time | Temp. | Humidity | Pressure | Rain* | Wind** | Luminosity | Snow |
|---|---|---|---|---|---|---|---|
| 1777417527 | 12.78° C | 49% | 1017.1 hPa | 0 mm | - | - | - |
| 1777416320 | 12.78° C | 50% | 1016.9 hPa | 0 mm | - | - | - |
| 1777415132 | 12.78° C | 50% | 1016.8 hPa | 0 mm | - | - | - |
| 1777412716 | 12.78° C | 48% | 1017 hPa | 0 mm | - | - | - |
| 1777411528 | 14.44° C | 44% | 1016.6 hPa | 0 mm | - | - | - |
| 1777410925 | 14.44° C | 41% | 1016.7 hPa | 0 mm | - | - | - |
| 1777409153 | 14.44° C | 41% | 1016.7 hPa | 0 mm | - | - | - |
| 1777407925 | 15° C | 41% | 1016.5 hPa | 0 mm | - | - | - |
| 1777403133 | 13.33° C | 47% | 1016.7 hPa | 0 mm | - | - | - |
| 1777391136 | 5.56° C | 74% | 1018.1 hPa | 0 mm | - | - | - |
| 1777388116 | 3.89° C | 80% | 1017.9 hPa | 0 mm | - | - | - |
| 1777386325 | 3.33° C | 81% | 1017.6 hPa | 0 mm | - | - | - |
| 1777385721 | 3.33° C | 82% | 1017.6 hPa | 0 mm | - | - | - |
| 1777383325 | 3.33° C | 82% | 1016.9 hPa | 0 mm | - | - | - |
| 1777382117 | 3.33° C | 82% | 1016.6 hPa | 0 mm | - | - | - |
| 1777380930 | 2.78° C | 83% | 1016.3 hPa | 0 mm | - | - | - |
| 1777379118 | 2.78° C | 84% | 1015.8 hPa | 0 mm | - | - | - |
| 1777374327 | 3.33° C | 81% | 1015.6 hPa | 0 mm | - | - | - |
| 1777371328 | 3.89° C | 80% | 1016 hPa | 0 mm | - | - | - |
| 1777363553 | 4.44° C | 83% | 1017.4 hPa | 0 mm | - | - | - |
| 1777361721 | 4.44° C | 84% | 1017.4 hPa | 0 mm | - | - | - |
| 1777360534 | 4.44° C | 83% | 1017.6 hPa | 0 mm | - | - | - |
| 1777356327 | 5.56° C | 88% | 1017.2 hPa | 0 mm | - | - | - |
| 1777355159 | 5.56° C | 90% | 1016.8 hPa | 0 mm | - | - | - |
| 1777353328 | 5.56° C | 90% | 1016.8 hPa | 0 mm | - | - | - |
* Rain latest hour (hover to see other rain measurements)
** Current wind speed in m/s (hover to see current wind gust speed)